COSMOS 2524 (43032 NORAD) Tracking and Keplerian Element Data

This shows tracking and keplerian element data for the satellite.

Feedback or suggestion? Click here.




ElementValue
Catalog43032
NameCOSMOS 2524
Epoch Orbit402
Epoch Day365.08777947
Epoch Year2017
RAAN148.444
Inclination67.1473
Eccentricity0.0006534
Argument of Perigee264.2811
Mean Anonmoly95.753
Mean Motion13.96672748
Decay Rate-1.08E-06
L11 43032U 17076A 17365.08777947 -.00000108 00000-0 -23632-4 0 9995
L22 43032 67.1473 148.4440 0006534 264.2811 95.7530 13.96672748 4027

Live tracking and technical data element details for COSMOS 2524 (NORAD 43032). COSMOS 2524 can be tracked NOW for your location showing map with azimuth and elevation plus other details from your city location.

Track the satellite on the map from your city or location and see movement details for azimuth, elevation, latitude, longitude, range, height, and movement on the map or in text.







IsCatalogInMostPopularTable: catalog: 43032, numindb: 142
Update: records affected: 1



GetName: 43032 COSMOS 2524

Hit Count: updated at: Wed, 14 Nov 2018 15:02:37 GMT